Probability
0 0 0 0 0 0 0 0 0 0 0 0 0 0 0 0 0 0 0 0 0 0 0 0 0 0 0 0 0 0 0 0 0 0 0 0 0 0 0 0 0 0 0 1 2 3 2 2 4
0 0 0 0 0 0 0 0 0 0 0 0 0 0 0 0 0 0 0 0 0 0 0 0 0 0 0 0 0 0 0 0 0 0 0 0 0 0 0 0 0 0 0 1 2 2 1 1 2
0 0 0 0 0 0 0 0 0 0 0 0 0 0 0 0 0 0 0 0 0 0 0 0 0 0 0 0 0 0 0 0 0 0 0 0 0 0 0 0 0 0 1 2 2 2 2 1 1
0 0 0 0 0 0 0 0 0 0 0 0 1 1 1 0 0 0 0 1 1 0 0 0 0 1 1 0 0 0 0 0 0 0 0 0 0 0 0 0 0 0 1 1 1 2 2 1 0
0 0 0 0 0 0 0 0 0 0 0 0 1 2 2 1 0 0 0 1 1 1 0 0 1 3 2 1 0 0 0 0 0 0 0 0 0 0 0 0 0 0 0 0 0 1 1 1 0
0 0 0 0 0 0 0 0 0 0 0 0 2 3 3 1 0 0 0 1 2 2 1 0 1 2 2 1 0 0 0 0 0 0 0 0 0 0 0 0 0 0 0 0 0 0 0 0 0
0 0 0 0 0 0 0 0 0 0 0 0 1 2 3 2 1 0 1 1 2 2 1 0 0 1 1 0 0 0 0 0 0 0 0 0 0 0 0 0 0 0 0 0 0 0 0 0 0
0 0 0 0 0 0 0 0 0 0 0 0 1 1 2 2 1 1 3 4 4 2 0 0 0 0 0 0 0 0 0 0 0 0 0 0 0 0 0 0 0 0 0 0 0 0 0 0 0
0 0 0 0 0 0 0 0 0 0 0 0 0 0 1 1 0 1 4 6 5 2 0 0 0 0 0 0 0 0 0 0 0 0 0 0 0 0 0 0 0 0 0 0 0 0 0 0 0
0 0 0 0 0 0 0 0 0 0 0 0 0 0 0 0 0 0 2 4 4 3 2 1 1 0 0 1 3 3 2 1 0 0 0 0 0 0 0 0 0 0 0 0 0 0 0 0 1
0 0 0 0 0 0 0 0 0 0 0 0 0 0 0 0 0 0 0 1 2 2 2 2 2 2 2 3 6 7 7 5 2 1 0 0 0 0 0 0 0 0 0 1 1 1 0 0 1
0 0 0 0 0 0 0 0 0 0 0 0 0 0 0 0 0 0 0 0 1 1 1 2 3 4 4 4 7 9 9 7 4 2 1 1 1 1 1 0 0 1 1 1 1 1 0 0 1
0 0 0 0 0 0 0 0 0 0 0 0 0 0 0 0 0 0 0 0 0 0 0 1 3 4 4 4 5 7 8 7 5 3 3 2 3 2 1 0 0 1 2 2 1 1 0 0 0
0 0 0 0 0 0 0 0 0 0 0 0 0 0 0 0 0 0 0 0 1 1 1 0 1 3 4 3 4 5 6 6 5 4 3 3 3 3 1 0 1 2 3 3 2 0 0 0 0
0 0 0 0 0 0 0 0 0 0 0 0 0 0 0 0 0 0 0 0 1 2 2 1 1 2 3 3 3 5 6 6 5 4 3 3 3 3 2 1 1 2 3 3 1 0 0 0 0
0 0 0 0 0 0 0 0 0 0 0 0 0 0 0 0 0 0 0 0 0 1 2 1 1 1 2 3 3 4 6 7 6 5 4 3 3 3 3 2 2 2 3 2 1 0 0 0 0
0 0 0 0 0 0 0 0 0 0 0 0 0 0 0 0 0 0 0 0 0 0 1 1 0 0 1 2 3 4 5 6 6 6 5 4 3 3 3 3 2 2 2 2 1 0 0 0 0
0 0 0 0 0 0 0 0 0 0 0 0 0 0 0 0 0 0 0 0 0 0 0 0 0 0 0 1 2 2 3 4 6 6 6 4 2 2 3 3 2 1 1 2 1 0 0 0 0
0 0 0 0 0 0 0 0 0 0 0 0 0 0 0 0 0 0 0 0 0 0 0 0 0 1 0 0 1 1 1 3 4 6 6 5 4 3 3 2 1 1 0 1 1 0 0 0 0
0 0 0 0 0 0 0 0 0 0 0 0 0 0 0 0 0 0 0 0 0 0 0 0 0 0 0 0 0 0 0 1 3 4 6 6 5 5 4 3 2 1 0 0 0 0 0 0 0
0 0 0 0 0 0 0 0 0 0 0 0 0 0 0 0 0 0 0 0 0 0 0 0 0 0 0 0 0 0 0 1 2 3 5 5 5 5 5 4 3 2 1 0 0 0 0 0 0
0 0 0 0 0 0 0 0 0 0 0 0 0 0 0 0 0 0 0 0 0 0 0 0 0 0 0 0 0 0 0 1 1 3 4 4 4 4 3 3 3 2 2 1 0 0 0 0 0
0 0 0 0 0 0 0 0 0 0 0 0 0 0 0 0 0 0 0 0 0 0 0 0 0 0 0 0 0 0 0 0 1 3 3 4 3 3 1 1 1 1 2 1 0 0 0 0 0
0 0 0 0 0 0 0 0 0 0 0 0 0 0 0 0 0 0 0 0 0 0 0 0 0 0 0 0 0 0 0 0 1 2 3 3 3 2 1 0 0 0 1 1 0 0 0 0 0
0 0 0 0 0 0 0 0 0 0 0 0 0 0 0 0 0 0 0 0 0 0 0 0 0 0 0 0 0 0 0 0 1 1 2 2 2 1 1 1 1 0 0 0 0 0 0 0 0
0 0 0 0 0 0 0 0 0 0 0 0 0 0 0 0 0 0 0 0 0 0 0 0 0 0 0 0 0 0 0 0 0 0 1 1 1 0 0 1 1 1 0 0 0 0 0 0 0
0 0 0 0 0 0 0 0 0 0 0 0 0 0 0 0 0 0 0 0 0 0 0 0 0 0 0 0 0 0 0 0 0 0 1 1 0 0 1 1 1 1 1 1 0 0 0 0 0
0 0 0 0 0 0 0 0 0 0 0 0 0 0 0 0 0 0 0 0 0 0 0 0 0 0 0 0 0 0 0 0 0 0 1 1 1 0 1 1 1 1 1 1 0 0 0 0 0
0 0 0 0 0 0 0 0 0 0 0 0 0 0 0 0 0 0 0 0 0 0 0 0 0 0 0 0 0 0 0 0 0 0 0 0 1 1 1 0 0 0 1 1 0 0 0 0 0
0 0 0 0 0 0 0 0 0 0 0 0 0 0 0 0 0 0 0 0 0 0 0 0 0 0 0 0 0 0 0 0 0 0 0 0 0 1 0 0 0 0 0 0 0 0 0 0 0
Wind_Speed
3 1 2 2 4 4 6 4 3 3 3 1 1 2 2 2 1 2 4 5 5 7 8 8 6 7 8 8 8 8 8 8 8 8 7 7 7 7 7 7 7 8 8 8 8 7 7 8 9
2 1 2 3 5 6 5 4 5 4 2 3 2 2 2 1 2 2 3 5 6 7 8 8 6 7 8 8 7 7 7 8 8 8 8 8 7 7 7 7 7 7 7 7 7 7 7 8 8
0 1 2 3 5 7 4 3 4 2 2 3 3 1 1 1 2 2 3 6 7 7 7 7 6 7 8 8 7 7 7 8 7 7 7 7 7 7 7 7 7 7 7 7 7 7 7 7 7
1 2 2 4 8 6 4 1 2 4 3 2 2 3 2 2 1 2 5 7 7 7 7 7 6 7 8 8 7 7 7 7 7 6 6 6 7 7 7 7 6 6 6 7 7 7 7 7 7
1 2 4 6 8 5 4 2 3 5 3 3 3 2 3 3 2 4 6 7 7 7 6 7 6 7 8 8 7 7 7 6 6 6 6 6 6 6 6 6 6 6 5 6 6 6 7 7 7
2 3 6 8 8 6 4 3 4 4 3 2 3 3 2 3 3 4 6 7 7 7 6 6 6 5 6 7 7 7 7 6 6 6 6 6 6 6 6 6 6 6 5 6 6 6 6 7 7
3 4 6 8 7 7 4 3 5 5 5 3 3 3 3 4 3 5 6 6 6 6 6 5 6 6 5 5 6 6 6 6 6 6 5 5 5 5 5 6 6 5 6 6 6 6 6 7 6
2 3 6 7 8 7 3 3 2 4 4 1 3 4 2 4 5 6 6 6 6 5 5 5 5 5 5 5 5 5 6 6 6 6 6 6 5 5 5 5 5 5 6 6 6 6 6 6 6
3 6 8 8 7 4 2 3 1 1 2 2 2 2 3 5 7 7 6 5 5 5 5 5 5 5 5 5 5 5 5 5 5 5 5 4 3 4 4 5 5 5 5 5 5 5 6 6 6
5 7 8 3 3 2 2 3 2 3 4 4 3 1 2 5 7 7 7 7 6 6 5 5 5 5 5 4 4 3 3 3 3 3 3 3 3 2 3 6 5 5 4 4 5 5 5 3 3
4 7 4 4 3 3 3 3 3 5 7 5 5 3 4 5 6 7 7 6 6 6 5 4 5 5 5 4 3 2 2 2 3 3 3 3 3 2 2 2 3 3 3 3 3 3 2 2 1
4 5 4 3 2 3 4 3 4 6 7 4 4 2 4 6 7 8 7 6 5 5 5 4 4 4 5 4 3 3 3 2 2 3 3 3 2 2 2 1 2 2 1 2 2 1 2 2 2
7 4 4 4 3 3 4 6 6 8 7 6 4 3 6 7 7 7 6 6 6 6 6 5 5 5 5 5 4 3 3 3 3 3 3 3 3 3 2 1 1 1 1 2 1 1 2 2 2
3 4 4 4 5 4 5 7 7 9 6 6 5 6 6 7 7 6 6 7 7 7 7 6 6 6 5 5 4 4 4 4 4 3 4 4 3 3 3 2 2 2 1 1 1 1 1 1 1
2 3 5 5 5 4 4 8 10 9 6 7 6 6 5 5 6 7 7 7 7 7 6 6 6 6 6 5 5 4 4 4 4 3 4 4 4 4 3 2 2 2 2 2 2 2 1 1 1
3 5 5 3 3 3 6 11 5 4 5 7 7 6 6 5 6 7 6 6 6 6 6 6 5 6 6 5 5 4 4 4 4 4 4 4 4 4 3 3 2 2 2 2 2 2 2 1 1
5 6 7 4 3 3 7 10 5 3 5 7 7 7 7 6 6 6 6 6 6 6 6 6 6 6 6 5 4 4 4 4 4 3 3 4 5 5 4 3 2 3 2 2 2 2 2 2 1
6 7 6 6 2 4 8 11 10 7 7 9 8 8 7 7 7 6 5 5 5 5 5 6 6 6 5 4 4 3 4 3 3 3 3 4 4 4 4 3 3 4 3 3 3 3 2 2 1
4 7 9 6 2 5 9 13 14 9 8 9 9 8 7 7 6 4 4 3 3 4 5 6 6 5 4 4 4 4 4 4 3 3 4 5 4 5 4 3 4 4 4 4 4 3 3 2 1
7 9 9 4 1 4 8 13 13 9 9 7 7 6 6 6 4 3 3 2 3 4 4 5 6 6 6 4 4 3 3 3 3 3 3 4 4 4 4 4 4 4 4 5 4 4 2 2 2
9 10 9 6 4 4 7 10 8 5 4 4 5 5 5 5 4 3 2 2 2 3 4 4 6 6 6 5 3 3 3 3 3 4 4 4 4 4 4 5 5 5 5 4 5 5 5 3 3
9 6 7 7 6 5 4 8 6 4 4 5 4 4 4 4 3 3 2 2 2 2 3 4 5 5 5 5 5 6 5 5 5 4 4 4 4 4 4 4 5 5 4 4 4 5 4 4 4
4 2 5 6 6 6 6 8 8 3 6 6 4 3 4 3 3 2 2 2 2 1 1 2 4 4 5 5 6 7 6 5 4 4 4 4 4 4 4 4 4 4 4 5 5 5 5 4 4
3 2 2 3 4 8 8 9 9 5 6 4 3 3 3 3 2 2 2 2 2 1 0 1 2 3 3 4 5 6 6 5 5 5 4 4 3 4 4 4 4 4 4 5 5 5 6 5 5
5 4 3 4 5 7 4 8 9 4 3 3 3 3 2 2 2 2 2 3 3 2 1 0 1 2 2 3 4 4 5 6 6 6 5 4 3 3 4 4 4 4 4 4 5 5 5 6 6
8 7 6 5 5 3 5 9 5 2 2 2 2 2 1 2 2 2 2 2 2 2 1 1 0 1 1 2 3 3 3 3 3 5 4 4 3 4 4 4 4 4 4 4 4 4 5 5 6
7 7 3 2 1 5 6 6 6 2 2 1 1 1 1 2 2 2 3 3 3 2 1 1 0 0 1 1 1 1 2 3 3 3 4 3 3 3 4 4 4 4 4 4 4 4 4 4 5
3 3 4 5 5 7 6 7 5 4 4 2 1 1 1 1 2 2 3 3 3 2 2 2 1 1 1 1 1 1 1 2 2 2 2 2 3 3 3 3 4 4 4 4 4 4 4 5 5
6 5 5 4 4 5 6 5 1 3 3 3 2 1 1 1 2 2 2 2 2 3 3 2 2 2 2 1 1 1 1 1 1 1 2 2 2 2 3 3 3 3 3 3 4 4 4 5 5
5 6 8 6 6 5 6 6 1 1 2 2 1 0 1 2 2 2 2 3 3 3 3 3 3 2 2 2 1 1 1 1 1 1 1 1 1 1 2 2 3 3 3 3 4 4 4 5 5
Wind_Direction
333 312 242 222 219 226 233 210 207 186 189 177 163 205 222 227 274 41 83 142 144 150 156 159 153 148 140 136 139 139 139 139 136 133 128 120 117 119 120 119 116 114 112 106 102 98 93 92 90
334 285 222 224 233 225 218 205 206 206 143 139 163 192 199 189 30 76 129 150 153 151 157 158 147 146 141 138 139 140 140 139 138 134 129 124 120 118 117 119 117 115 112 108 104 101 97 95 94
228 310 231 217 230 237 216 178 210 179 161 191 170 193 247 112 117 121 122 152 152 150 156 148 148 148 143 141 139 136 136 134 134 134 132 131 128 124 121 118 118 116 113 112 109 104 103 99 99
220 181 207 232 230 237 251 183 181 183 171 190 197 168 144 54 53 98 135 152 149 147 149 142 140 142 138 139 141 139 136 134 131 134 137 137 135 131 126 124 120 115 113 114 108 102 105 102 102
227 213 216 227 236 235 241 257 225 207 189 180 207 199 150 102 84 127 145 152 150 148 148 144 135 136 135 134 133 134 132 127 124 125 129 134 133 128 127 127 122 118 117 115 109 105 102 101 103
197 219 227 231 230 234 231 233 223 226 214 190 210 211 145 106 130 139 147 152 149 147 148 145 129 125 130 133 131 130 127 121 119 119 120 121 127 129 126 124 121 115 116 116 112 110 109 103 102
225 225 239 238 239 238 227 206 229 234 226 216 221 205 155 146 138 143 147 146 145 146 150 151 151 143 128 122 122 121 118 116 114 113 109 105 105 112 119 118 119 118 117 115 111 109 107 104 100
243 229 233 231 235 241 213 196 240 247 247 156 212 231 177 140 139 145 144 147 148 150 153 155 156 157 154 143 118 112 108 106 105 101 95 96 100 104 103 109 108 113 113 112 112 110 107 104 100
215 230 232 228 230 227 183 210 205 266 212 182 212 318 27 115 144 149 150 158 161 162 165 165 162 161 161 155 137 129 117 110 116 113 103 119 139 135 125 102 95 101 106 109 114 113 112 112 105
213 231 236 239 248 232 211 240 244 220 231 230 224 216 99 143 162 168 176 181 184 184 182 178 177 170 168 160 158 160 154 147 152 144 145 149 143 130 126 100 89 90 99 108 111 115 125 139 136
215 238 239 237 247 249 239 246 246 243 249 251 255 228 180 178 184 192 198 199 198 194 189 191 186 181 177 170 169 164 160 153 153 150 157 152 148 143 145 139 129 124 130 138 135 153 158 152 147
221 242 249 249 227 235 245 246 245 246 258 304 298 260 199 201 204 206 208 209 205 200 197 195 191 189 188 183 177 173 169 165 163 159 172 167 161 161 161 159 153 156 157 159 169 163 150 159 164
224 235 240 246 244 253 259 253 261 258 263 278 280 241 221 219 222 222 220 216 210 207 204 201 196 193 192 189 186 182 178 179 171 167 178 178 172 171 167 165 166 173 175 176 173 163 161 176 186
220 228 246 256 249 240 242 260 256 261 264 262 259 252 241 233 233 229 224 221 217 213 208 202 198 196 193 195 192 190 184 182 181 177 178 179 180 177 175 175 177 183 185 180 178 169 173 181 176
209 237 253 239 235 224 237 258 242 259 254 257 258 258 255 251 247 240 233 227 225 219 211 204 200 198 196 197 197 195 188 186 186 183 183 182 183 183 180 179 181 183 181 173 156 150 154 160 179
210 226 241 208 214 212 232 259 262 262 245 256 260 260 258 256 252 251 248 239 231 221 211 201 194 199 201 200 199 198 193 190 190 187 184 185 186 185 184 185 184 177 172 170 167 167 171 177 194
206 231 241 239 204 215 230 263 274 257 254 264 266 263 262 261 262 259 251 242 232 218 209 200 197 200 203 201 199 195 193 196 194 190 188 188 187 188 190 189 182 179 174 174 177 186 193 191 191
218 229 239 242 209 230 243 260 273 269 260 264 266 265 265 265 267 266 257 245 233 220 205 200 198 200 198 195 193 187 188 195 196 192 191 189 185 186 192 185 180 181 181 177 180 185 187 197 192
245 243 253 255 251 256 256 269 275 274 262 263 264 265 268 269 272 267 253 239 228 220 207 200 198 195 188 190 194 196 197 196 195 195 193 194 188 185 189 184 181 187 189 184 181 180 181 189 184
237 247 255 262 239 269 279 277 274 264 259 259 261 265 271 278 284 279 258 228 219 221 217 207 202 198 196 199 202 206 201 201 199 192 198 199 193 188 192 194 186 187 189 184 181 176 187 185 196
234 240 248 258 300 259 288 276 253 239 238 248 257 262 269 272 280 287 278 243 226 231 227 216 208 205 203 196 187 182 187 192 198 205 206 207 201 191 194 203 193 189 191 191 189 188 196 194 196
245 236 239 247 262 266 264 282 268 244 255 253 257 261 270 275 276 285 281 257 243 250 238 224 213 205 200 193 194 195 200 207 210 207 205 198 199 198 199 202 198 191 193 193 193 195 202 202 197
237 225 222 236 243 264 230 250 266 238 250 247 244 259 276 287 281 284 293 276 270 279 242 222 209 200 196 198 203 204 213 219 210 199 202 195 194 203 203 199 196 196 199 199 196 194 198 204 210
160 154 169 201 222 247 226 228 263 234 239 252 252 269 292 306 304 311 329 333 335 343 281 202 194 192 196 202 207 211 213 213 207 203 200 198 196 200 205 199 201 206 206 203 201 200 200 203 210
183 186 216 219 218 240 188 228 254 256 260 269 270 285 309 335 339 344 354 353 351 352 353 238 194 191 197 205 210 218 221 217 214 211 208 203 199 203 207 200 207 213 214 212 206 202 204 206 207
200 210 219 238 241 253 203 234 251 269 303 300 280 277 309 339 342 343 349 349 349 345 347 342 229 208 200 208 218 224 226 226 222 216 211 208 211 212 204 201 207 213 209 209 209 208 209 210 212
188 214 246 251 282 265 240 250 270 237 247 253 251 269 303 332 342 349 354 351 351 346 337 329 317 278 232 223 222 231 230 233 232 226 220 215 215 210 204 199 203 207 204 205 204 212 212 213 216
238 184 176 204 228 246 251 247 247 234 247 247 240 245 292 340 360 354 358 358 354 345 342 346 348 332 320 310 272 260 244 245 242 232 233 228 219 205 197 193 200 204 204 205 205 212 215 212 217
178 188 210 217 237 240 255 252 274 246 242 233 237 244 281 323 347 358 3 5 5 5 6 358 350 354 354 335 310 279 261 253 240 237 246 245 235 214 200 194 198 200 203 205 207 213 213 214 218
224 215 202 215 229 234 258 267 49 259 241 211 235 306 330 342 343 357 10 18 14 8 7 4 356 350 346 339 327 294 276 258 240 244 252 256 243 230 218 203 201 206 207 208 210 216 218 218 220